Wetbulb
69.40 67.47 67.01 65.48 58.28 58.29 55.56 56.83 61.76 60.56 60.95 62.99 64.77 65.62 64.97 66.42 63.79 61.78 72.56 73.10 69.47 69.97 75.03 76.71 77.48 77.53 77.96 78.16 78.14 77.86 77.63 77.58 77.68 77.75 77.63 77.63 77.35 76.92 76.42 75.80 74.91 74.10 73.50 72.80 72.99 73.19 73.48 73.79 73.71
66.30 64.57 64.06 61.75 56.03 54.07 54.80 58.04 58.99 61.78 63.34 62.70 62.71 64.00 64.44 63.93 68.44 70.38 71.81 73.32 70.29 71.56 74.96 75.73 77.45 77.35 77.76 77.83 77.66 77.43 77.35 77.43 77.43 77.43 77.35 77.38 77.10 76.49 75.83 75.24 74.48 73.44 72.52 73.01 73.54 74.31 74.69 74.80 74.60
61.46 61.74 59.45 58.39 56.54 54.07 55.30 57.31 59.89 60.66 62.00 57.80 59.70 65.31 65.84 65.73 69.30 71.23 74.21 74.08 71.10 72.54 74.40 76.43 77.35 77.20 77.43 77.53 77.35 77.20 77.10 77.18 77.38 77.38 77.18 77.00 76.72 76.24 75.63 74.86 74.02 72.61 72.91 74.37 75.06 75.18 74.88 74.38 74.45
59.39 59.28 58.93 53.15 53.10 56.87 57.28 58.35 58.22 58.20 57.18 57.57 61.19 61.69 67.51 72.37 71.75 73.01 73.99 74.19 71.09 72.00 73.53 76.67 77.15 76.97 77.45 77.40 77.10 77.07 77.20 77.13 77.10 76.95 76.72 76.47 76.04 75.69 75.03 74.17 73.19 72.36 74.25 75.14 74.72 73.58 72.45 72.08 71.76
61.03 58.73 51.06 51.02 51.32 54.75 58.50 58.85 59.35 58.13 57.18 56.03 63.69 61.40 65.12 72.35 73.73 74.30 74.36 74.08 71.68 71.49 72.99 77.01 77.07 77.18 77.35 77.23 77.02 77.02 76.97 76.77 76.87 76.82 76.37 76.02 75.71 75.13 74.42 73.43 72.13 72.76 74.49 74.31 72.81 70.67 70.06 69.84 69.95
54.37 55.76 49.09 47.62 49.95 52.92 55.62 58.04 58.49 57.77 57.61 56.19 59.51 64.40 67.07 73.55 73.14 73.90 74.78 74.32 72.86 71.31 73.19 75.79 77.12 77.07 77.00 76.85 77.05 76.84 76.61 76.59 76.69 76.87 76.60 76.09 75.44 74.80 73.82 72.75 71.83 73.03 73.92 73.17 72.24 70.75 70.34 70.91 71.45
53.16 51.46 48.42 48.98 49.04 50.21 52.46 56.14 55.31 56.65 56.89 55.30 61.65 64.94 69.83 71.58 74.21 75.03 75.00 74.67 73.14 71.81 72.45 74.99 75.82 77.06 76.77 76.59 76.64 76.56 76.59 76.56 76.59 76.64 76.61 76.24 75.21 74.42 73.33 72.29 71.83 73.09 73.47 73.13 72.13 71.23 70.75 70.89 69.46
55.12 53.09 48.88 49.43 48.33 48.93 52.95 54.36 55.74 55.42 55.44 58.22 64.86 65.39 67.15 72.15 74.56 74.81 75.36 74.88 73.77 72.01 72.17 73.38 74.06 75.27 75.23 75.56 76.52 76.41 76.44 76.46 76.43 76.44 76.24 75.89 74.96 73.91 73.21 72.83 72.72 72.64 73.22 73.16 72.47 71.67 71.12 67.29 72.47
55.74 49.73 47.96 48.94 48.77 49.98 53.95 52.60 55.42 57.09 55.91 56.89 61.85 65.84 70.55 73.79 74.85 74.18 73.78 74.16 72.41 71.90 72.31 73.34 72.61 73.44 73.85 74.26 75.62 75.99 75.44 75.69 76.19 75.93 75.72 75.36 74.09 73.76 74.24 73.10 72.77 72.74 73.00 73.30 72.30 70.91 70.81 66.81 72.88
52.45 49.51 49.35 51.65 51.86 50.97 52.53 53.16 53.78 53.97 54.17 55.99 59.34 64.39 70.53 72.99 73.81 73.14 72.68 72.24 71.01 71.73 71.98 73.05 73.26 73.16 73.19 72.82 75.77 74.87 74.40 74.46 74.59 74.71 75.46 74.58 73.75 74.57 73.55 73.79 72.65 72.58 73.17 73.50 69.94 68.79 69.50 67.97 70.06
52.58 49.51 51.72 51.78 52.65 53.35 52.77 52.99 54.67 53.15 52.70 56.15 56.85 57.62 65.75 70.64 72.91 72.93 72.91 72.68 72.05 72.67 72.74 72.72 74.10 74.72 73.99 73.45 74.45 73.89 73.64 73.92 74.31 74.93 75.55 74.72 73.50 74.05 72.53 74.10 72.04 73.16 72.90 72.59 71.01 69.22 68.22 66.36 69.35
49.83 52.65 52.43 52.25 53.67 53.21 52.48 53.53 52.82 53.89 54.74 57.93 58.11 58.49 58.47 67.50 69.98 72.20 72.46 72.93 72.51 72.06 73.75 74.29 74.49 74.84 74.93 73.98 73.91 74.38 73.61 73.59 73.40 74.32 75.68 74.40 73.14 73.43 73.58 73.15 72.84 73.30 71.80 72.24 70.61 69.41 69.25 68.15 68.26
50.44 50.78 52.11 53.33 53.37 52.56 52.91 51.86 52.37 53.46 56.11 57.85 57.85 58.29 59.33 60.54 68.72 72.21 72.74 72.88 74.01 72.94 73.94 74.57 75.12 75.22 75.05 74.88 74.47 74.73 74.10 73.49 73.60 73.42 74.58 73.70 72.61 72.99 73.64 73.75 73.97 74.12 73.57 71.36 71.03 70.34 68.96 68.45 67.69
50.69 50.88 50.69 51.74 52.10 52.51 50.96 51.63 52.85 54.14 56.34 56.73 57.23 57.44 61.04 66.26 70.11 72.09 72.90 73.15 73.82 74.54 74.49 75.15 75.25 75.94 75.46 75.18 75.43 74.77 74.95 74.48 73.85 73.01 73.18 74.11 72.93 73.18 73.88 74.40 74.65 75.02 75.01 73.12 71.22 70.00 68.36 68.36 69.13
51.42 49.24 51.01 51.88 52.28 51.52 52.70 49.88 51.00 54.78 55.73 55.73 56.71 57.34 57.72 64.70 69.60 70.85 72.05 73.10 74.17 74.85 75.37 75.29 75.75 76.38 75.97 75.50 75.24 75.11 75.06 74.71 74.14 73.59 73.81 73.90 73.89 73.78 74.89 74.51 75.21 76.00 76.67 74.28 70.37 69.22 69.02 67.62 67.96
49.11 49.77 46.60 50.68 50.93 51.33 51.29 47.04 52.35 54.97 54.70 54.70 56.16 56.76 57.05 58.24 59.89 63.79 69.33 72.33 74.04 74.82 74.95 75.91 75.43 75.73 76.25 75.97 75.61 75.08 74.92 74.73 74.21 74.24 73.41 73.57 73.59 73.85 74.07 73.10 74.69 76.29 76.45 73.03 69.14 69.06 67.05 66.82 67.09
49.06 45.15 46.35 47.50 50.86 50.41 50.21 48.24 52.29 54.87 54.38 54.49 55.93 56.78 56.68 57.72 59.81 62.70 62.45 62.50 71.30 74.39 75.18 75.13 75.94 75.35 75.95 76.61 75.94 75.81 75.90 74.58 73.61 73.88 73.43 73.46 72.77 72.62 73.26 72.62 74.21 76.41 75.33 72.33 69.21 68.83 67.65 67.00 66.91
45.22 45.61 45.89 45.80 48.79 49.51 49.05 48.89 51.48 53.72 53.67 54.18 55.07 55.57 56.65 58.60 62.29 65.26 67.19 67.34 62.94 69.22 74.32 75.34 75.60 75.92 76.14 75.71 75.36 75.05 74.52 72.26 73.73 72.98 73.09 73.52 72.39 72.04 72.93 72.26 74.37 75.81 74.45 71.41 68.84 69.15 67.91 67.43 66.84
46.95 45.70 45.16 47.47 49.19 47.67 47.98 48.42 50.38 52.85 53.58 53.72 54.53 56.15 58.39 60.60 63.07 65.14 67.07 69.35 68.09 65.69 73.27 74.83 74.79 75.79 75.41 74.39 73.21 72.94 72.12 71.58 71.27 71.62 72.37 73.15 72.35 72.22 72.98 71.70 72.86 74.66 73.61 71.68 70.03 68.96 68.18 66.29 68.12
47.33 45.99 45.69 46.91 48.68 48.23 48.51 48.60 51.06 52.48 52.95 55.20 56.49 57.74 59.19 61.03 62.63 64.01 65.81 67.79 69.95 70.03 69.38 73.49 74.60 75.32 75.35 74.60 74.16 73.38 72.55 73.20 72.66 71.07 71.52 72.43 72.31 71.88 72.29 72.53 72.94 74.12 72.94 70.92 70.27 69.64 66.06 66.47 68.03
47.18 45.46 45.53 45.38 48.32 49.63 48.50 47.40 49.24 52.07 55.15 56.28 57.63 59.11 60.42 61.41 62.07 63.96 65.62 67.56 69.70 70.25 71.01 70.42 73.98 74.90 75.73 75.76 74.27 73.60 73.10 72.79 72.39 72.10 70.55 70.61 71.35 71.35 72.28 72.58 72.79 74.20 72.72 70.37 70.53 69.63 68.72 64.18 66.92
44.94 48.13 47.23 46.69 45.95 42.93 49.09 41.55 48.51 51.23 53.08 55.05 56.66 58.81 60.61 62.37 64.07 65.26 66.44 68.21 69.44 70.42 71.76 70.93 71.95 74.58 74.79 75.72 74.58 74.12 71.51 70.29 71.19 71.70 72.11 72.75 71.27 70.98 71.62 72.22 72.58 73.82 72.48 73.95 70.61 69.50 68.89 68.30 65.36
46.50 48.98 48.13 47.83 46.63 46.40 46.29 43.78 48.09 50.67 50.38 52.92 56.51 59.00 60.96 62.74 64.09 64.86 66.67 68.30 69.54 70.62 71.82 72.89 72.09 74.08 74.20 74.39 74.03 72.82 72.30 72.33 72.47 71.89 72.70 73.76 73.60 72.10 71.28 71.27 72.49 73.64 71.90 72.14 70.99 70.01 69.44 67.13 65.25
49.74 48.17 48.24 48.24 46.74 41.51 45.34 44.63 45.20 48.23 51.93 53.37 56.77 58.61 59.97 61.46 62.51 63.91 65.78 67.43 68.17 70.04 71.08 72.61 73.69 73.29 73.97 74.03 73.54 73.38 73.12 72.66 72.08 72.36 71.27 71.55 72.04 72.16 72.21 71.72 73.46 73.65 72.91 71.47 70.01 70.67 69.76 69.19 69.04
48.98 46.97 41.16 39.68 39.75 39.13 46.89 44.56 47.43 51.66 53.71 54.88 55.81 57.45 58.97 60.02 60.87 62.00 62.72 63.81 65.63 66.93 68.41 69.99 71.43 71.58 73.20 73.73 73.40 72.99 73.00 72.98 72.61 72.48 72.53 73.52 72.29 72.05 72.71 73.19 72.15 71.74 71.42 70.40 69.84 69.73 69.69 69.55 68.18
47.36 47.28 41.98 36.29 38.35 40.99 45.98 41.39 47.76 52.97 55.32 56.55 56.83 57.08 57.11 57.42 60.35 60.27 60.06 60.80 62.91 64.50 65.56 66.85 67.89 69.08 71.30 72.52 72.93 73.58 72.85 72.24 72.51 73.01 72.28 72.24 72.86 72.39 71.91 71.61 70.30 68.95 67.74 68.14 68.66 69.23 68.23 69.96 68.72
45.62 42.68 46.48 43.27 44.58 41.32 44.42 47.44 50.38 52.73 52.76 53.89 55.09 53.85 54.22 55.34 58.47 58.27 57.73 58.80 61.58 63.38 64.77 65.12 65.21 66.10 67.77 68.77 70.66 71.31 73.12 73.74 73.17 73.67 73.52 71.35 71.10 70.18 69.98 69.53 68.34 67.07 64.91 64.86 66.04 67.52 67.70 69.32 69.63
44.47 46.70 40.07 42.08 33.56 34.27 40.66 42.45 44.77 49.25 50.29 51.36 51.51 52.06 53.06 53.94 54.63 55.58 55.92 57.53 59.83 61.16 62.74 63.32 64.66 64.90 65.89 67.01 68.28 69.58 69.69 70.04 70.44 71.22 71.33 70.42 71.41 70.61 69.48 68.40 68.27 65.87 65.93 63.92 64.03 65.39 67.01 67.91 67.69
44.22 42.68 43.31 43.27 41.08 35.07 34.43 39.28 50.65 48.43 49.63 49.96 50.11 50.35 52.22 53.72 54.83 55.93 56.55 57.04 57.53 58.05 59.15 62.00 63.43 64.39 64.35 65.16 66.10 67.86 69.54 69.68 69.12 69.35 69.62 70.51 71.24 70.31 69.28 68.18 66.47 66.06 64.31 64.66 63.36 63.32 64.94 66.87 67.45
45.60 44.66 44.87 39.34 37.41 40.88 39.81 38.65 50.29 48.20 47.55 48.26 48.45 49.62 51.39 52.37 53.41 54.33 55.44 56.56 57.60 58.05 58.35 59.52 62.72 63.40 63.72 64.03 64.64 65.65 67.75 68.89 68.53 67.44 68.15 69.54 68.77 68.45 68.78 68.04 67.16 66.40 65.68 65.34 64.29 63.08 62.40 65.75 66.47
MSLP
1011.40 1010.60 1009.95 1008.86 1007.09 1005.03 1004.46 1005.12 1005.45 1005.37 1005.28 1005.63 1005.62 1005.23 1004.82 1004.61 1004.15 1004.90 1006.68 1007.07 1007.68 1008.75 1010.51 1011.99 1012.72 1013.23 1013.57 1014.11 1014.33 1014.62 1014.72 1015.08 1015.38 1015.78 1016.07 1016.33 1016.54 1016.68 1016.90 1017.01 1017.06 1017.10 1017.15 1017.20 1017.20 1017.17 1017.12 1017.07 1017.03
1010.64 1010.30 1009.24 1007.31 1005.68 1003.49 1003.92 1005.16 1004.87 1005.04 1005.31 1005.70 1005.50 1005.26 1005.14 1004.51 1004.89 1005.86 1006.55 1007.60 1008.01 1008.91 1010.39 1011.63 1013.04 1013.44 1013.68 1014.13 1014.59 1014.98 1015.22 1015.29 1015.67 1015.88 1016.19 1016.46 1016.67 1016.82 1016.96 1017.14 1017.26 1017.30 1017.31 1017.34 1017.32 1017.22 1017.17 1017.15 1017.11
1010.66 1010.15 1007.99 1006.13 1004.71 1003.46 1003.46 1005.08 1005.02 1005.27 1005.18 1005.12 1004.95 1005.29 1004.87 1004.79 1005.64 1005.88 1006.90 1007.70 1008.36 1009.23 1010.33 1011.27 1012.83 1013.59 1014.00 1014.28 1014.71 1014.99 1015.38 1015.77 1015.89 1016.13 1016.35 1016.66 1016.90 1016.99 1017.08 1017.23 1017.40 1017.43 1017.40 1017.39 1017.31 1017.25 1017.23 1017.20 1017.22
1009.96 1009.08 1008.13 1006.43 1004.22 1003.68 1004.20 1004.92 1005.40 1005.08 1004.93 1004.94 1005.12 1004.68 1005.26 1006.15 1006.22 1006.81 1007.38 1007.67 1008.20 1009.06 1010.10 1011.85 1012.91 1013.55 1013.87 1014.40 1014.87 1015.28 1015.52 1015.77 1016.13 1016.40 1016.67 1016.80 1016.96 1017.09 1017.20 1017.36 1017.47 1017.54 1017.51 1017.41 1017.35 1017.29 1017.28 1017.23 1017.21
1009.71 1008.28 1006.54 1005.45 1004.36 1003.90 1004.72 1005.11 1005.23 1004.86 1004.82 1004.90 1005.01 1004.56 1005.09 1006.51 1007.30 1007.32 1007.53 1007.77 1008.10 1008.76 1009.82 1011.70 1012.76 1013.70 1014.15 1014.35 1014.82 1015.19 1015.56 1015.81 1016.00 1016.34 1016.68 1016.91 1017.05 1017.17 1017.26 1017.35 1017.49 1017.53 1017.48 1017.42 1017.35 1017.31 1017.24 1017.15 1017.10
1008.60 1007.81 1006.05 1004.64 1004.13 1004.30 1004.84 1005.14 1005.18 1004.91 1004.76 1004.86 1004.72 1004.94 1005.22 1006.82 1007.31 1007.40 1007.60 1007.95 1008.50 1009.01 1009.95 1011.50 1012.85 1013.35 1014.03 1014.58 1014.98 1015.35 1015.65 1015.87 1016.01 1016.15 1016.41 1016.68 1016.95 1017.19 1017.37 1017.40 1017.40 1017.48 1017.48 1017.41 1017.31 1017.26 1017.23 1017.04 1016.91
1008.14 1007.04 1005.54 1004.64 1004.17 1004.48 1004.85 1005.11 1005.07 1004.75 1004.76 1004.93 1005.22 1004.75 1005.65 1006.72 1007.37 1007.70 1007.88 1008.18 1008.63 1009.50 1010.00 1011.46 1012.43 1013.47 1014.08 1014.43 1015.06 1015.52 1015.82 1015.99 1016.16 1016.22 1016.35 1016.57 1016.84 1017.17 1017.34 1017.43 1017.44 1017.43 1017.49 1017.45 1017.38 1017.28 1017.18 1017.03 1016.86
1008.36 1007.28 1005.59 1005.22 1004.68 1004.65 1005.23 1005.52 1005.35 1005.19 1004.93 1005.39 1005.35 1004.54 1005.06 1006.59 1007.67 1008.23 1007.99 1008.33 1008.92 1009.88 1009.99 1011.03 1011.84 1012.68 1013.54 1014.31 1015.03 1015.49 1015.90 1016.14 1016.31 1016.53 1016.54 1016.73 1017.01 1017.16 1017.32 1017.35 1017.30 1017.41 1017.49 1017.46 1017.35 1017.28 1017.17 1017.06 1016.81
1008.91 1007.19 1005.33 1004.81 1004.96 1005.06 1006.01 1005.71 1005.46 1005.72 1005.34 1005.11 1005.40 1005.63 1006.19 1007.06 1007.66 1008.01 1007.98 1008.26 1009.08 1009.71 1009.82 1010.47 1011.12 1011.84 1012.46 1013.04 1014.50 1015.40 1015.85 1016.19 1016.42 1016.52 1016.80 1016.87 1016.12 1016.40 1016.81 1016.88 1017.14 1017.30 1017.41 1017.49 1017.36 1017.23 1017.11 1017.00 1016.72
1008.17 1006.50 1005.23 1005.38 1005.76 1005.84 1005.92 1006.28 1005.89 1005.62 1004.89 1004.56 1004.95 1005.57 1006.70 1007.09 1007.08 1007.03 1007.28 1007.53 1008.43 1008.75 1009.32 1009.84 1010.55 1011.21 1011.88 1012.39 1013.48 1014.46 1014.86 1015.26 1015.54 1015.74 1016.02 1015.98 1015.54 1015.71 1015.73 1016.36 1017.13 1017.27 1017.30 1017.33 1017.41 1017.26 1017.02 1016.63 1015.18
1007.54 1006.46 1005.70 1006.64 1006.76 1006.67 1006.44 1006.28 1006.10 1005.41 1004.69 1004.29 1004.68 1005.04 1005.98 1006.65 1006.81 1006.61 1006.74 1007.09 1007.61 1008.29 1009.21 1009.69 1010.44 1011.00 1011.43 1011.99 1012.73 1013.39 1013.83 1014.35 1014.79 1015.16 1015.45 1015.53 1015.35 1015.72 1015.95 1015.68 1016.25 1016.33 1016.95 1016.11 1016.53 1016.65 1015.88 1015.67 1015.30
1007.52 1007.06 1006.82 1006.67 1007.01 1007.00 1006.73 1006.41 1006.16 1005.57 1004.77 1004.57 1004.87 1004.93 1005.27 1005.88 1006.04 1006.03 1006.13 1006.29 1006.88 1007.92 1008.77 1009.67 1010.43 1011.11 1011.37 1011.60 1012.39 1012.65 1013.10 1013.65 1014.16 1014.64 1015.22 1015.24 1015.55 1015.36 1015.15 1015.02 1015.12 1015.72 1015.53 1015.73 1015.98 1015.50 1016.25 1016.12 1015.99
1007.55 1006.78 1007.12 1007.15 1007.18 1007.08 1006.88 1006.51 1005.95 1005.30 1005.00 1004.77 1004.76 1004.58 1004.57 1004.84 1005.36 1005.95 1006.25 1006.51 1006.57 1007.36 1008.37 1009.33 1010.11 1010.97 1011.40 1011.75 1012.03 1012.48 1012.89 1013.36 1013.67 1014.23 1014.78 1014.88 1014.99 1015.09 1015.11 1015.02 1014.95 1014.95 1015.18 1015.48 1015.70 1015.79 1016.02 1016.19 1016.10
1006.99 1007.02 1007.00 1007.01 1006.88 1006.85 1006.71 1006.04 1005.90 1005.07 1004.94 1004.77 1004.42 1004.22 1004.15 1004.43 1004.87 1005.54 1006.16 1006.28 1006.63 1007.31 1008.03 1008.99 1009.74 1010.73 1011.32 1011.71 1011.83 1012.23 1012.40 1012.82 1013.47 1013.75 1014.20 1014.94 1014.97 1015.00 1014.98 1015.15 1015.13 1015.01 1015.17 1015.29 1015.63 1015.89 1015.98 1016.03 1016.01
1007.55 1007.28 1006.92 1006.70 1006.64 1006.43 1006.49 1005.74 1005.06 1005.10 1005.07 1004.45 1004.15 1003.99 1004.20 1004.25 1004.82 1005.31 1005.72 1006.37 1006.79 1007.34 1008.02 1008.65 1009.45 1010.26 1011.01 1011.45 1011.91 1012.12 1012.21 1012.56 1012.87 1013.33 1013.94 1014.49 1014.88 1014.92 1015.23 1014.92 1014.96 1014.80 1015.05 1015.69 1016.04 1016.28 1016.27 1016.18 1016.17
1007.41 1007.03 1005.90 1005.19 1006.18 1006.24 1006.54 1004.40 1004.13 1004.80 1005.02 1004.30 1003.90 1004.04 1004.13 1004.33 1004.71 1005.02 1005.47 1006.21 1006.84 1007.33 1007.82 1008.53 1009.17 1009.72 1010.59 1011.00 1011.49 1011.62 1011.80 1012.13 1012.42 1012.86 1013.33 1014.04 1014.41 1014.83 1015.15 1014.97 1014.87 1014.75 1015.34 1015.50 1015.77 1015.91 1015.96 1016.00 1016.02
1006.72 1005.49 1005.36 1005.39 1006.24 1005.84 1006.03 1004.23 1003.98 1004.96 1004.93 1004.59 1004.20 1003.99 1004.40 1004.61 1005.05 1006.12 1006.32 1006.40 1006.42 1007.05 1007.46 1008.18 1008.88 1009.33 1010.15 1011.05 1011.34 1011.48 1011.44 1011.94 1012.15 1012.35 1012.69 1013.41 1013.88 1014.21 1014.88 1014.58 1014.55 1015.11 1015.23 1015.30 1015.54 1015.89 1015.97 1015.96 1015.96
1005.12 1005.54 1005.37 1005.45 1005.89 1006.09 1005.38 1004.84 1004.44 1004.57 1004.80 1004.63 1004.57 1004.67 1004.84 1005.13 1006.08 1006.66 1006.72 1006.82 1006.79 1006.56 1007.19 1007.86 1008.45 1009.24 1009.81 1010.60 1011.12 1011.56 1011.22 1011.68 1011.90 1012.13 1011.84 1012.57 1013.13 1013.53 1014.15 1014.30 1014.53 1015.05 1015.20 1015.34 1015.54 1015.83 1016.05 1015.85 1015.85
1006.28 1006.10 1005.68 1005.61 1006.07 1006.37 1005.43 1004.81 1004.49 1004.51 1004.68 1004.65 1004.79 1005.40 1005.77 1006.21 1006.85 1007.10 1007.24 1007.24 1006.93 1006.82 1006.98 1007.55 1008.11 1008.75 1009.40 1009.89 1010.14 1010.44 1010.65 1011.59 1011.74 1012.55 1011.75 1012.48 1012.84 1013.33 1013.87 1014.04 1014.44 1015.16 1015.09 1015.34 1015.92 1016.02 1016.27 1015.99 1016.07
1006.79 1006.37 1005.95 1005.93 1006.12 1006.40 1005.13 1005.00 1004.45 1004.39 1004.85 1005.60 1006.14 1006.41 1006.79 1006.95 1007.17 1007.53 1007.50 1007.27 1007.21 1007.26 1007.21 1007.35 1007.83 1008.42 1009.04 1009.28 1009.66 1009.92 1009.65 1009.91 1010.62 1011.53 1012.02 1012.47 1012.80 1013.45 1013.69 1014.10 1014.16 1014.89 1014.93 1015.49 1015.83 1015.94 1015.63 1015.70 1015.93
1006.56 1006.22 1005.87 1005.84 1006.08 1006.15 1005.46 1004.68 1004.43 1005.34 1006.13 1006.65 1007.11 1007.45 1007.66 1007.78 1007.86 1007.95 1007.88 1007.74 1007.38 1007.27 1007.35 1007.18 1007.38 1007.97 1008.55 1008.93 1009.32 1009.79 1009.66 1009.93 1009.78 1010.63 1011.64 1012.40 1012.40 1012.61 1012.91 1013.58 1013.85 1014.37 1014.66 1014.99 1015.64 1015.78 1015.69 1015.32 1015.75
1005.87 1006.36 1006.24 1006.01 1005.90 1004.75 1005.00 1003.25 1003.70 1004.92 1006.11 1007.00 1007.63 1008.01 1008.20 1008.33 1008.28 1008.16 1008.12 1008.02 1007.95 1007.92 1007.33 1007.02 1007.04 1007.52 1008.21 1008.70 1008.66 1008.95 1008.85 1009.04 1009.55 1010.20 1010.78 1011.48 1012.66 1012.88 1012.44 1012.99 1013.59 1014.08 1014.35 1014.39 1015.10 1015.38 1015.40 1015.69 1015.13
1005.92 1005.86 1006.16 1005.93 1005.49 1005.05 1004.88 1004.53 1002.66 1004.84 1006.18 1007.53 1008.32 1008.73 1008.91 1008.84 1008.75 1008.57 1008.45 1008.49 1008.34 1008.37 1007.70 1007.02 1006.99 1007.28 1008.02 1008.33 1008.83 1008.70 1009.03 1008.85 1009.38 1009.89 1010.65 1011.05 1011.63 1011.80 1012.11 1012.71 1013.30 1013.90 1014.17 1014.32 1014.83 1015.14 1015.48 1015.19 1015.03
1006.49 1006.44 1006.35 1006.17 1005.58 1004.56 1004.54 1004.55 1003.46 1004.27 1006.28 1008.31 1009.05 1009.49 1009.58 1009.43 1009.39 1009.15 1009.18 1009.17 1008.98 1008.69 1008.50 1008.13 1007.59 1007.54 1007.87 1008.21 1008.61 1008.84 1008.68 1008.96 1008.60 1009.02 1009.62 1010.05 1010.70 1011.33 1011.94 1012.26 1013.03 1013.66 1014.23 1014.30 1014.80 1015.15 1015.34 1015.36 1015.02
1006.92 1006.38 1005.84 1005.51 1004.85 1003.87 1004.11 1004.22 1004.77 1007.30 1008.32 1009.24 1009.76 1010.14 1010.20 1010.02 1009.90 1009.65 1009.61 1009.57 1009.77 1009.52 1009.37 1009.06 1008.88 1008.68 1008.33 1007.89 1008.24 1008.60 1008.70 1008.89 1008.94 1008.96 1008.98 1009.24 1009.94 1010.43 1011.27 1012.08 1013.08 1013.92 1014.61 1014.90 1015.34 1015.43 1015.41 1015.49 1015.20
1006.55 1006.34 1005.63 1004.51 1003.98 1003.55 1004.90 1005.06 1006.20 1008.61 1009.74 1010.31 1010.67 1010.69 1010.53 1010.39 1010.37 1010.40 1010.44 1010.26 1010.12 1010.32 1010.26 1009.89 1009.67 1009.48 1009.20 1008.80 1008.62 1008.39 1008.41 1008.42 1008.38 1008.51 1008.58 1009.13 1009.27 1010.51 1011.70 1012.44 1013.17 1013.82 1014.39 1014.97 1015.63 1015.77 1015.59 1015.26 1015.23
1007.54 1007.68 1007.88 1006.76 1005.93 1005.62 1004.71 1006.83 1008.58 1009.38 1010.09 1010.68 1010.89 1011.02 1011.02 1010.90 1010.80 1010.81 1010.80 1010.85 1010.55 1010.52 1010.72 1010.61 1010.28 1009.99 1009.78 1009.65 1009.59 1009.19 1008.92 1008.58 1008.41 1008.51 1009.14 1009.85 1010.44 1010.88 1011.63 1012.53 1012.70 1013.17 1013.68 1014.62 1015.34 1016.14 1015.51 1015.35 1015.08
1008.95 1009.19 1008.84 1008.63 1008.22 1007.12 1006.08 1006.38 1007.06 1009.13 1010.01 1010.62 1010.95 1011.33 1011.46 1011.31 1011.09 1011.09 1011.00 1011.13 1010.96 1010.73 1010.64 1010.95 1010.83 1010.54 1010.23 1009.89 1009.57 1009.40 1009.61 1009.43 1009.20 1009.17 1009.17 1009.71 1010.00 1010.42 1010.72 1011.29 1011.74 1012.01 1012.02 1012.73 1014.55 1015.28 1015.37 1015.38 1014.91
1009.58 1009.32 1009.51 1009.74 1010.06 1008.91 1008.38 1008.87 1009.70 1009.81 1010.90 1011.57 1011.94 1012.34 1012.18 1012.04 1011.81 1011.54 1011.34 1011.25 1011.04 1011.11 1010.88 1011.04 1011.06 1010.75 1010.67 1010.49 1010.19 1009.82 1009.41 1009.48 1009.68 1009.58 1009.51 1009.52 1009.93 1010.13 1010.48 1011.24 1011.31 1011.21 1010.62 1011.31 1010.35 1012.76 1014.83 1014.81 1014.29
1010.98 1010.46 1010.30 1009.96 1009.80 1009.75 1009.35 1009.78 1011.00 1011.56 1012.16 1012.56 1012.77 1012.89 1012.95 1012.90 1012.75 1012.42 1012.41 1012.17 1011.74 1011.47 1011.54 1011.40 1011.41 1011.05 1010.86 1010.86 1010.69 1010.45 1009.97 1009.65 1009.67 1010.02 1009.96 1009.72 1009.97 1010.28 1010.41 1010.76 1010.95 1010.92 1010.72 1011.32 1011.33 1011.79 1011.47 1013.35 1013.26
Wind_Speed
8 6 6 7 9 7 6 8 3 7 3 6 2 5 3 11 6 7 4 12 20 21 21 20 17 17 17 15 17 17 18 17 16 14 14 13 12 12 11 9 9 8 8 7 6 5 4 4 4
2 5 7 5 9 8 10 1 4 4 7 4 4 7 8 5 1 8 9 9 19 20 20 20 16 16 17 17 16 15 14 16 14 15 13 12 11 11 11 9 8 7 7 6 5 4 3 2 2
4 5 7 6 8 10 6 4 2 3 4 6 4 3 3 2 3 3 8 15 20 20 20 19 18 16 15 16 15 15 14 12 13 13 13 12 10 10 10 9 7 7 6 6 5 4 3 2 2
4 6 5 11 16 4 4 5 3 4 2 6 5 6 3 4 1 4 5 18 22 21 21 21 18 16 16 16 14 13 13 13 11 11 11 11 10 9 8 7 7 6 6 5 4 4 3 2 1
5 4 11 13 16 13 3 5 6 7 4 7 7 3 2 5 2 2 9 16 21 21 20 21 19 16 14 16 15 14 14 13 13 12 11 10 9 8 7 7 6 6 6 5 4 2 2 1 2
7 6 10 13 15 10 5 8 7 9 2 5 9 5 3 5 3 4 11 15 18 19 19 20 19 19 17 15 14 13 13 13 13 12 11 11 9 8 6 6 6 7 6 4 3 1 3 4 4
13 9 14 15 10 7 7 5 12 7 10 5 11 5 5 2 6 8 11 15 16 17 18 18 19 16 16 16 14 12 11 11 11 11 11 10 9 7 6 6 5 6 6 4 2 1 3 5 7
8 8 15 12 11 11 3 8 3 9 7 7 4 3 7 6 8 7 12 14 16 15 17 17 17 18 16 15 14 13 11 11 10 9 9 9 7 7 7 6 7 5 5 3 1 1 2 2 4
5 9 12 14 9 7 5 6 3 5 11 5 2 5 6 8 11 13 13 16 16 16 17 17 18 18 17 16 14 13 13 11 10 10 9 9 9 10 11 8 7 5 4 3 1 3 3 3 4
12 11 13 2 6 6 4 4 6 9 8 9 5 8 3 8 11 13 14 16 19 20 20 17 17 17 16 12 15 14 13 12 11 11 11 10 7 6 3 6 6 5 5 4 3 3 6 10 4
11 15 6 6 9 6 7 8 7 11 12 11 4 5 5 8 10 11 13 16 20 19 15 17 16 15 16 13 10 9 8 8 9 12 10 10 6 7 7 6 7 7 9 8 9 7 5 3 3
11 12 9 5 7 10 9 7 11 11 14 9 10 11 7 11 10 12 12 12 15 18 20 19 18 16 15 11 10 10 9 9 8 10 11 8 6 6 6 5 5 4 5 2 4 2 3 4 3
16 10 8 10 9 10 10 12 13 12 13 8 8 7 7 10 10 10 10 10 12 17 19 19 18 16 15 13 11 10 9 8 9 8 11 9 8 7 7 6 5 4 3 4 3 1 1 3 4
4 15 10 8 10 9 12 13 8 12 8 11 7 5 6 3 8 9 9 10 12 14 17 18 18 17 16 14 13 11 10 10 9 8 9 12 8 6 7 6 6 5 4 2 3 2 2 3 2
7 10 13 13 12 11 10 15 16 14 6 11 9 6 3 6 6 6 7 8 9 11 15 18 18 17 17 17 14 11 9 10 9 9 10 11 10 8 8 7 7 5 4 3 3 4 3 4 4
12 10 14 7 9 10 11 12 14 6 7 11 10 7 5 2 5 4 4 7 9 12 15 15 14 18 18 15 13 11 10 10 9 9 9 12 12 10 9 8 7 5 4 5 4 4 4 4 4
11 12 11 8 8 5 15 11 7 9 7 8 11 8 5 2 5 7 6 7 9 12 13 15 16 17 17 14 11 12 12 11 9 10 9 12 13 12 10 8 7 5 6 5 5 4 4 4 4
11 13 9 10 8 10 11 12 8 10 8 9 5 5 3 3 11 9 11 9 7 11 13 13 14 16 15 12 12 11 11 6 7 9 9 12 11 13 11 9 8 6 7 6 5 4 4 4 5
6 8 8 6 3 8 14 13 11 10 12 13 6 1 4 8 8 11 12 12 9 7 9 12 15 15 13 13 13 12 12 10 9 9 9 10 11 12 11 9 9 8 7 7 7 6 6 6 4
11 12 12 6 7 10 8 12 12 11 4 2 1 5 7 10 11 12 14 14 12 7 7 10 13 15 15 12 11 10 10 10 10 9 8 12 12 11 9 10 9 9 7 8 8 8 6 7 7
13 13 10 10 8 10 8 14 11 9 9 7 7 6 8 11 13 13 13 13 14 13 10 9 11 13 15 15 10 10 9 10 9 8 8 9 10 12 12 12 11 9 9 8 9 9 9 7 7
15 12 12 10 10 11 13 11 15 15 10 6 7 8 9 11 11 12 12 13 14 14 13 7 10 11 13 14 12 15 12 10 8 7 9 8 12 13 10 10 11 11 9 8 9 8 8 9 7
13 9 13 13 12 14 13 10 7 13 11 5 7 9 11 11 13 15 15 14 13 14 14 11 5 6 10 11 14 12 14 10 8 9 9 9 9 12 13 11 12 11 9 9 9 9 10 8 9
4 8 11 11 12 16 17 13 12 12 8 5 7 9 10 12 13 15 16 16 16 15 15 14 12 3 5 9 12 14 13 12 10 9 9 8 9 9 11 12 10 9 8 8 8 8 10 10 8
11 12 10 13 13 14 15 16 3 7 9 7 7 8 9 10 12 14 17 16 18 19 18 14 13 11 12 5 8 11 13 13 13 13 10 9 9 9 10 11 7 4 3 5 5 6 10 10 9
13 14 13 15 13 13 8 10 9 8 8 8 7 6 8 10 11 13 15 15 15 17 17 17 16 15 14 10 9 6 9 8 9 11 9 8 9 5 6 8 7 7 4 3 6 6 9 10 10
8 11 8 11 8 11 6 8 7 7 8 6 7 6 8 9 9 10 14 15 14 14 14 15 15 15 13 11 10 7 6 7 6 5 6 6 9 10 12 13 13 11 10 5 5 7 11 9 8
4 3 5 4 7 13 11 8 2 13 9 7 5 4 6 6 7 9 11 12 12 12 11 13 14 14 13 14 12 7 7 7 6 5 10 12 13 15 16 17 15 14 16 13 6 5 12 11 9
7 8 5 5 8 7 7 2 7 6 6 0 4 6 8 8 9 10 10 11 10 12 15 13 12 12 12 13 13 12 9 5 4 5 7 10 12 14 13 12 13 14 15 16 20 16 12 13 12
11 12 14 11 15 11 13 4 5 6 4 3 7 6 9 9 9 9 11 12 13 12 13 13 12 10 11 11 12 13 12 10 5 4 6 4 8 9 11 12 11 14 13 11 13 14 15 15 13
Wind_Direction
209 252 275 249 254 236 113 98 101 105 164 23 322 268 255 331 351 33 91 150 152 156 154 164 160 161 156 157 153 152 149 147 145 141 137 135 134 132 125 119 114 111 109 108 107 108 105 106 116
223 259 238 280 260 234 110 56 204 34 51 353 280 254 242 267 25 114 141 159 152 150 154 166 161 163 157 155 155 152 149 143 143 140 138 138 139 137 130 122 117 117 115 114 112 115 111 111 131
227 258 269 268 260 258 91 80 37 328 322 352 325 242 319 92 93 68 89 158 161 156 158 153 159 162 157 154 154 149 144 142 141 139 140 141 142 138 132 129 127 122 115 108 105 99 94 104 134
212 195 219 253 252 189 291 120 27 323 96 353 344 259 170 51 24 42 148 165 162 162 160 138 155 161 155 151 148 143 142 142 142 143 145 146 145 140 136 134 127 120 115 104 94 85 83 75 70
217 253 249 240 250 268 234 289 305 304 326 1 357 13 247 120 46 172 165 173 168 161 160 154 153 156 154 150 149 148 150 150 149 150 152 152 150 148 149 142 134 126 114 104 94 79 67 4 300
212 277 238 239 239 235 265 277 279 283 314 349 336 303 71 92 145 144 159 170 171 159 158 154 154 154 152 153 154 155 158 158 157 155 156 160 161 163 163 155 145 133 122 113 107 57 355 324 312
254 229 249 258 272 268 273 290 262 299 289 31 326 297 79 141 109 141 152 161 161 162 166 158 164 158 152 152 155 158 161 162 163 162 161 167 170 172 174 168 158 140 130 123 130 19 349 342 319
258 264 254 245 251 245 136 258 286 275 306 333 324 17 61 84 133 133 149 156 162 175 171 166 171 170 173 165 157 161 167 169 168 174 173 171 174 181 189 186 171 155 133 130 143 304 316 1 332
243 243 244 237 246 230 155 255 263 295 268 272 309 337 18 136 152 157 160 163 168 179 175 175 176 174 182 173 166 167 175 180 179 182 188 179 206 180 165 107 138 168 152 145 256 276 266 210 136
223 235 251 323 287 251 198 244 292 285 248 260 208 124 115 169 181 172 172 171 174 180 181 180 182 175 185 176 163 191 186 195 199 199 187 219 212 202 246 133 173 194 181 172 196 252 239 234 212
216 252 269 217 254 254 281 262 247 262 261 233 289 320 174 197 200 198 193 180 187 182 181 188 183 176 188 184 177 184 192 198 199 208 207 217 192 192 206 184 185 194 197 201 192 193 240 349 290
252 236 250 249 222 250 252 288 259 250 260 301 303 300 262 207 214 207 206 194 187 184 190 191 184 183 196 188 190 186 196 196 204 202 200 213 218 201 218 211 195 206 190 129 233 197 10 261 271
235 251 245 244 241 251 264 251 255 254 256 271 287 286 253 229 207 206 216 232 196 195 191 198 189 190 191 199 184 199 200 197 210 207 200 217 218 211 210 209 218 210 169 200 209 220 216 184 223
223 240 241 236 237 228 244 247 234 240 240 266 263 269 246 223 196 196 209 217 199 197 197 201 198 190 197 201 199 199 192 198 212 211 215 213 227 210 220 213 223 218 218 206 231 194 190 229 267
226 238 220 232 236 233 231 245 229 247 257 255 252 259 261 226 195 219 213 219 217 209 205 199 200 195 203 199 201 208 199 208 202 215 212 211 211 210 249 231 232 230 201 222 209 201 214 231 236
229 239 249 183 216 219 223 246 204 166 247 252 244 258 275 299 307 325 232 225 217 221 206 204 201 199 201 203 201 206 208 209 210 209 216 210 212 224 207 235 237 231 215 206 213 220 220 229 222
203 251 213 159 207 186 214 247 169 189 235 254 260 256 273 305 66 34 358 298 231 217 221 208 205 211 203 210 215 215 206 212 214 211 211 207 213 209 226 226 229 226 227 214 214 218 242 193 230
225 218 223 252 155 225 214 246 235 233 232 238 250 265 305 11 43 21 6 348 303 245 211 214 209 211 202 203 206 220 216 228 223 219 210 207 211 208 204 228 232 207 227 213 211 213 212 248 209
264 262 257 235 238 254 249 254 245 227 223 231 207 213 1 358 13 11 5 4 357 295 219 214 209 203 201 201 203 212 218 211 197 235 206 211 212 213 207 227 211 221 223 223 196 194 202 218 204
233 237 239 255 229 224 224 242 233 222 179 60 19 39 5 350 359 6 358 355 2 354 296 224 224 209 206 208 213 223 215 224 207 203 214 220 206 217 215 222 220 212 211 204 202 207 214 229 194
228 237 230 257 160 236 259 239 212 132 143 113 65 40 21 4 354 359 359 359 354 353 341 290 225 224 214 221 207 219 226 233 218 201 210 214 214 214 209 213 226 199 219 200 207 205 218 226 209
236 212 243 225 225 245 196 260 182 161 145 92 49 34 23 15 12 10 8 8 6 353 336 318 260 220 221 215 219 213 223 220 221 221 216 197 211 216 193 202 218 214 208 219 202 211 225 242 218
253 223 222 233 242 258 200 254 189 151 163 70 54 50 41 32 31 26 20 19 17 7 358 349 317 235 226 214 235 222 228 235 216 219 214 187 201 213 208 210 210 213 217 208 222 210 213 210 251
255 225 236 241 246 236 237 214 238 178 105 106 81 63 50 42 37 37 33 32 21 23 18 15 358 337 248 233 217 242 242 235 241 209 220 203 204 199 204 212 206 220 237 220 213 222 214 235 225
219 226 225 217 224 243 238 223 242 86 94 95 92 79 60 44 37 34 30 32 29 26 22 21 24 18 355 275 236 235 233 241 236 237 213 214 204 201 182 186 176 171 250 265 254 233 248 228 231
219 244 250 255 246 233 142 218 105 111 115 105 86 67 57 46 47 41 30 20 28 30 26 25 23 17 10 1 355 275 246 239 229 224 241 198 218 127 140 145 135 133 98 1 315 282 251 245 237
178 231 356 291 277 279 214 113 148 151 146 151 127 80 55 42 50 31 25 18 15 22 27 23 19 20 19 10 358 333 308 263 273 233 192 129 146 152 147 149 142 136 125 114 9 295 274 264 242
301 64 217 228 276 264 261 257 189 173 150 137 118 65 41 23 24 26 22 18 5 8 21 15 8 15 15 10 2 347 335 289 260 182 195 179 178 169 158 157 157 156 161 149 144 286 274 254 248
179 194 229 277 231 247 264 270 11 121 95 219 41 16 6 338 342 345 351 357 357 0 359 1 359 8 15 4 357 0 347 335 293 231 219 201 180 169 171 177 171 170 164 175 161 179 248 262 241
266 271 280 250 229 239 261 231 126 117 102 54 60 39 36 13 4 360 345 335 338 344 353 358 353 357 4 4 0 358 358 360 309 272 296 213 198 212 212 197 216 212 194 184 195 190 181 228 235